EZY24YG EGNM-EGAA

Flight info

Callsign EZY24YG
Flight time 0h 44m
Altitude 24000
Route NELSA DCT CROFT Y70 KOLID L70 GUNTU Z196 DIGMA M146 IPSET P6 BELZU
Aircraft A20N/M-SDE2E3FGHIRWXY/LB1

Departure

Time 2026-05-05 21:42
Airport Leeds Bradford Airport (EGNM)

Arrival

Time 2026-05-05 22:27
Airport Belfast International Airport (EGAA)
Time Latitude Longitude Altitude Speed Heading
2026-05-05 21:14 53.86882 -1.65691 667 ft 0 kts
2026-05-05 21:31 53.86881 -1.65691 668 ft 1 kts
2026-05-05 21:31 53.86866 -1.65693 668 ft 2 kts 359°
2026-05-05 21:31 53.86851 -1.65693 669 ft 2 kts
2026-05-05 21:31 53.86837 -1.65694 669 ft 2 kts
2026-05-05 21:32 53.86822 -1.65694 670 ft 1 kts
2026-05-05 21:32 53.86812 -1.65705 670 ft 2 kts 66°
2026-05-05 21:32 53.86811 -1.65729 670 ft 2 kts 97°
2026-05-05 21:32 53.86811 -1.65754 671 ft 2 kts 88°
2026-05-05 21:33 53.86811 -1.65780 671 ft 2 kts 90°
2026-05-05 21:33 53.86811 -1.65805 672 ft 2 kts 89°
2026-05-05 21:33 53.86811 -1.65830 673 ft 2 kts 89°
2026-05-05 21:33 53.86811 -1.65842 673 ft 0 kts 89°
2026-05-05 21:36 53.86811 -1.65820 672 ft 4 kts 93°
2026-05-05 21:36 53.86787 -1.65766 672 ft 7 kts 148°
2026-05-05 21:36 53.86749 -1.65703 671 ft 9 kts 116°
2026-05-05 21:37 53.86739 -1.65574 667 ft 14 kts 91°
2026-05-05 21:37 53.86693 -1.65429 662 ft 16 kts 170°
2026-05-05 21:37 53.86586 -1.65436 666 ft 14 kts 186°
2026-05-05 21:37 53.86498 -1.65445 670 ft 11 kts 182°
2026-05-05 21:38 53.86419 -1.65451 672 ft 11 kts 182°
2026-05-05 21:38 53.86344 -1.65457 673 ft 10 kts 182°
2026-05-05 21:38 53.86275 -1.65462 676 ft 9 kts 182°
2026-05-05 21:38 53.86218 -1.65453 678 ft 7 kts 162°
2026-05-05 21:39 53.86167 -1.65405 678 ft 9 kts 142°
2026-05-05 21:39 53.86110 -1.65322 676 ft 12 kts 138°
2026-05-05 21:39 53.86033 -1.65202 670 ft 17 kts 137°
2026-05-05 21:39 53.85934 -1.65039 661 ft 22 kts 120°
2026-05-05 21:40 53.85850 -1.64965 657 ft 10 kts 276°
2026-05-05 21:40 53.85907 -1.65013 660 ft 8 kts 320°
2026-05-05 21:40 53.85934 -1.65052 662 ft 0 kts 321°
2026-05-05 21:41 53.85960 -1.65088 664 ft 24 kts 320°
2026-05-05 21:41 53.86285 -1.65592 681 ft 101 kts 315°
2026-05-05 21:41 53.86948 -1.66592 676 ft 145 kts 317°
2026-05-05 21:42 53.87715 -1.67806 1218 ft 156 kts 320°
2026-05-05 21:42 53.88459 -1.69175 1905 ft 161 kts 318°
2026-05-05 21:42 53.89185 -1.70585 2624 ft 164 kts 317°
2026-05-05 21:42 53.89920 -1.72149 3132 ft 183 kts 304°
2026-05-05 21:43 53.90253 -1.74366 3614 ft 209 kts 273°
2026-05-05 21:43 53.90044 -1.76922 4101 ft 232 kts 259°
2026-05-05 21:43 53.89462 -1.79584 4569 ft 257 kts 243°
2026-05-05 21:43 53.88413 -1.82185 5180 ft 276 kts 232°
2026-05-05 21:44 53.87175 -1.84658 5996 ft 282 kts 231°
2026-05-05 21:44 53.85892 -1.87162 6625 ft 281 kts 231°
2026-05-05 21:44 53.84664 -1.89698 6939 ft 280 kts 239°
2026-05-05 21:44 53.84064 -1.92730 6971 ft 272 kts 272°
2026-05-05 21:45 53.84492 -1.95810 6973 ft 266 kts 300°
2026-05-05 21:45 53.85434 -1.98454 6987 ft 265 kts 304°
2026-05-05 21:45 53.86304 -2.01204 6965 ft 268 kts 289°
2026-05-05 21:45 53.86538 -2.04357 6966 ft 272 kts 272°
2026-05-05 21:46 53.86482 -2.07536 6968 ft 273 kts 270°
2026-05-05 21:46 53.86404 -2.10776 6966 ft 272 kts 271°
2026-05-05 21:46 53.86362 -2.13956 6971 ft 273 kts 271°
2026-05-05 21:46 53.86247 -2.17178 6958 ft 275 kts 259°
2026-05-05 21:47 53.85387 -2.20044 6958 ft 280 kts 230°
2026-05-05 21:47 53.83968 -2.22255 6970 ft 281 kts 222°
2026-05-05 21:47 53.82486 -2.24403 6960 ft 281 kts 222°
2026-05-05 21:47 53.80993 -2.26586 6955 ft 281 kts 223°
2026-05-05 21:48 53.79526 -2.28752 6975 ft 283 kts 223°
2026-05-05 21:48 53.78046 -2.30954 7461 ft 291 kts 223°
2026-05-05 21:48 53.76545 -2.33194 8529 ft 288 kts 224°
2026-05-05 21:48 53.75068 -2.35399 9474 ft 289 kts 224°
2026-05-05 21:49 53.73564 -2.37649 10342 ft 292 kts 224°
2026-05-05 21:49 53.72046 -2.39924 11201 ft 295 kts 224°
2026-05-05 21:49 53.70506 -2.42229 12066 ft 298 kts 224°
2026-05-05 21:49 53.68964 -2.44532 12903 ft 300 kts 224°
2026-05-05 21:50 53.67415 -2.46842 13711 ft 302 kts 224°
2026-05-05 21:50 53.65842 -2.49186 14488 ft 305 kts 224°
2026-05-05 21:50 53.64261 -2.51543 15260 ft 308 kts 225°
2026-05-05 21:50 53.62835 -2.54229 16032 ft 308 kts 238°
2026-05-05 21:51 53.61814 -2.57312 16777 ft 308 kts 248°
2026-05-05 21:51 53.60995 -2.60619 17527 ft 310 kts 250°
2026-05-05 21:51 53.60184 -2.64012 18256 ft 312 kts 250°
2026-05-05 21:51 53.59372 -2.67392 18950 ft 315 kts 249°
2026-05-05 21:52 53.57835 -2.74306 20268 ft 320 kts 258°
2026-05-05 21:52 53.57552 -2.77976 20902 ft 322 kts 269°
2026-05-05 21:52 53.57650 -2.81736 21545 ft 324 kts 275°
2026-05-05 21:53 53.57846 -2.85511 22163 ft 327 kts 275°
2026-05-05 21:53 53.58052 -2.89337 22785 ft 330 kts 275°
2026-05-05 21:53 53.58249 -2.93145 23366 ft 333 kts 275°
2026-05-05 21:53 53.58443 -2.97024 23861 ft 337 kts 275°
2026-05-05 21:54 53.58638 -3.01006 24029 ft 345 kts 275°
2026-05-05 21:54 53.58834 -3.05045 24033 ft 346 kts 275°
2026-05-05 21:54 53.59023 -3.09042 24033 ft 346 kts 275°
2026-05-05 21:54 53.59220 -3.13043 24033 ft 346 kts 276°
2026-05-05 21:55 53.59516 -3.17057 24031 ft 345 kts 279°
2026-05-05 21:55 53.59939 -3.21042 24035 ft 346 kts 281°
2026-05-05 21:55 53.60421 -3.24968 24034 ft 346 kts 282°
2026-05-05 21:55 53.60910 -3.28897 24039 ft 345 kts 282°
2026-05-05 21:56 53.61401 -3.32856 24039 ft 345 kts 282°
2026-05-05 21:56 53.61890 -3.36816 24036 ft 345 kts 282°
2026-05-05 21:56 53.62371 -3.40731 24038 ft 345 kts 282°
2026-05-05 21:56 53.62857 -3.44698 24040 ft 345 kts 282°
2026-05-05 21:57 53.63340 -3.48652 24040 ft 345 kts 282°
2026-05-05 21:57 53.63822 -3.52615 24039 ft 346 kts 282°
2026-05-05 21:57 53.64304 -3.56527 24039 ft 346 kts 283°
2026-05-05 21:57 53.64990 -3.60394 24040 ft 346 kts 290°
2026-05-05 21:58 53.65956 -3.64082 24040 ft 346 kts 297°
2026-05-05 21:58 53.67194 -3.67580 24036 ft 347 kts 302°
2026-05-05 21:58 53.68565 -3.70919 24040 ft 347 kts 303°
2026-05-05 21:58 53.69954 -3.74227 24041 ft 347 kts 304°
2026-05-05 21:59 53.71336 -3.77517 24038 ft 347 kts 304°
2026-05-05 21:59 53.72742 -3.80874 24037 ft 347 kts 303°
2026-05-05 21:59 53.74113 -3.84160 24040 ft 347 kts 303°
2026-05-05 21:59 53.75507 -3.87512 24041 ft 347 kts 303°
2026-05-05 22:00 53.76878 -3.90812 24036 ft 347 kts 303°
2026-05-05 22:00 53.78271 -3.94174 24045 ft 347 kts 303°
2026-05-05 22:00 53.79636 -3.97472 24052 ft 347 kts 303°
2026-05-05 22:00 53.81017 -4.00815 24056 ft 347 kts 303°
2026-05-05 22:01 53.82392 -4.04146 24057 ft 347 kts 304°
2026-05-05 22:01 53.83762 -4.07471 24049 ft 347 kts 304°
2026-05-05 22:01 53.85148 -4.10839 24045 ft 347 kts 303°
2026-05-05 22:01 53.86514 -4.14160 24044 ft 347 kts 303°
2026-05-05 22:02 53.87884 -4.17497 24043 ft 347 kts 303°
2026-05-05 22:02 53.89251 -4.20833 24044 ft 347 kts 303°
2026-05-05 22:02 53.90623 -4.24189 24045 ft 347 kts 303°
2026-05-05 22:02 53.91999 -4.27562 24040 ft 347 kts 303°
2026-05-05 22:03 53.93361 -4.30903 24043 ft 347 kts 303°
2026-05-05 22:03 53.94727 -4.34254 24045 ft 347 kts 303°
2026-05-05 22:03 53.96101 -4.37632 24047 ft 347 kts 303°
2026-05-05 22:03 53.97466 -4.40992 24049 ft 346 kts 303°
2026-05-05 22:04 53.98818 -4.44326 24046 ft 346 kts 303°
2026-05-05 22:04 54.00178 -4.47678 24044 ft 346 kts 304°
2026-05-05 22:04 54.01613 -4.50988 24047 ft 346 kts 307°
2026-05-05 22:04 54.03132 -4.54135 24047 ft 347 kts 310°
2026-05-05 22:05 54.04743 -4.57187 24044 ft 347 kts 311°
2026-05-05 22:05 54.06373 -4.60216 24045 ft 348 kts 311°
2026-05-05 22:05 54.08002 -4.63235 24048 ft 348 kts 311°
2026-05-05 22:05 54.09634 -4.66265 24033 ft 348 kts 310°
2026-05-05 22:06 54.11268 -4.69303 23784 ft 347 kts 310°
2026-05-05 22:06 54.12886 -4.72319 23526 ft 345 kts 310°
2026-05-05 22:06 54.14496 -4.75324 23272 ft 344 kts 310°
2026-05-05 22:06 54.16093 -4.78313 23023 ft 342 kts 310°
2026-05-05 22:07 54.17694 -4.81310 22768 ft 341 kts 310°
2026-05-05 22:07 54.19273 -4.84270 22526 ft 339 kts 310°
2026-05-05 22:07 54.20852 -4.87233 22282 ft 338 kts 310°
2026-05-05 22:07 54.22428 -4.90193 22044 ft 336 kts 311°
2026-05-05 22:08 54.23993 -4.93137 21734 ft 335 kts 311°
2026-05-05 22:08 54.25533 -4.96038 21365 ft 333 kts 311°
2026-05-05 22:08 54.27084 -4.98963 20972 ft 330 kts 311°
2026-05-05 22:08 54.28618 -5.01858 20574 ft 328 kts 311°
2026-05-05 22:09 54.30133 -5.04724 20177 ft 326 kts 311°
2026-05-05 22:09 54.31653 -5.07601 19780 ft 324 kts 311°
2026-05-05 22:09 54.33160 -5.10457 19389 ft 322 kts 311°
2026-05-05 22:09 54.34636 -5.13257 18993 ft 320 kts 311°
2026-05-05 22:10 54.36122 -5.16079 18599 ft 318 kts 311°
2026-05-05 22:10 54.37600 -5.18889 18208 ft 316 kts 311°
2026-05-05 22:10 54.39048 -5.21647 17815 ft 314 kts 311°
2026-05-05 22:10 54.40518 -5.24449 17414 ft 313 kts 311°
2026-05-05 22:11 54.41948 -5.27178 17021 ft 311 kts 311°
2026-05-05 22:11 54.43402 -5.29959 16617 ft 310 kts 311°
2026-05-05 22:11 54.44825 -5.32678 16239 ft 308 kts 311°
2026-05-05 22:11 54.46291 -5.35361 15854 ft 306 kts 313°
2026-05-05 22:12 54.47758 -5.37983 15455 ft 304 kts 313°
2026-05-05 22:12 54.49223 -5.40593 15074 ft 302 kts 314°
2026-05-05 22:12 54.50653 -5.43175 14697 ft 301 kts 310°
2026-05-05 22:12 54.51833 -5.46106 14301 ft 299 kts 298°
2026-05-05 22:13 54.52621 -5.49377 13928 ft 298 kts 290°
2026-05-05 22:13 54.53263 -5.52758 13533 ft 297 kts 289°
2026-05-05 22:13 54.53886 -5.56140 13149 ft 295 kts 289°
2026-05-05 22:13 54.54500 -5.59478 12775 ft 294 kts 289°
2026-05-05 22:14 54.55114 -5.62810 12401 ft 292 kts 289°
2026-05-05 22:14 54.55733 -5.66158 12007 ft 291 kts 288°
2026-05-05 22:14 54.56336 -5.69422 11621 ft 289 kts 288°
2026-05-05 22:14 54.56945 -5.72720 11252 ft 288 kts 288°
2026-05-05 22:15 54.57550 -5.75994 10886 ft 286 kts 288°
2026-05-05 22:15 54.58149 -5.79242 10519 ft 285 kts 289°
2026-05-05 22:15 54.58739 -5.82446 10238 ft 286 kts 289°
2026-05-05 22:15 54.59348 -5.85756 9609 ft 293 kts 289°
2026-05-05 22:16 54.59969 -5.89132 8949 ft 300 kts 288°
2026-05-05 22:16 54.60596 -5.92553 8297 ft 305 kts 288°
2026-05-05 22:16 54.61240 -5.96077 7630 ft 310 kts 288°
2026-05-05 22:16 54.61889 -5.99636 6968 ft 314 kts 288°
2026-05-05 22:17 54.62538 -6.03203 6313 ft 318 kts 288°
2026-05-05 22:17 54.63203 -6.06869 5642 ft 321 kts 288°
2026-05-05 22:17 54.63866 -6.10523 4978 ft 323 kts 289°
2026-05-05 22:17 54.64529 -6.14192 4349 ft 324 kts 289°
2026-05-05 22:18 54.65175 -6.17865 4002 ft 316 kts 285°
2026-05-05 22:18 54.65245 -6.21582 3688 ft 309 kts 257°
2026-05-05 22:18 54.64257 -6.24719 3469 ft 299 kts 225°
2026-05-05 22:18 54.62517 -6.26469 3253 ft 287 kts 192°
2026-05-05 22:19 54.60591 -6.26325 3052 ft 272 kts 158°
2026-05-05 22:19 54.58948 -6.24929 2900 ft 261 kts 153°
2026-05-05 22:19 54.57272 -6.23898 2717 ft 254 kts 165°
2026-05-05 22:19 54.55548 -6.23405 2551 ft 246 kts 173°
2026-05-05 22:20 54.53891 -6.23222 2468 ft 235 kts 177°
2026-05-05 22:20 54.52300 -6.23172 2458 ft 221 kts 178°
2026-05-05 22:20 54.50816 -6.23172 2449 ft 206 kts 179°
2026-05-05 22:20 54.49439 -6.23182 2440 ft 191 kts 177°
2026-05-05 22:21 54.48213 -6.22737 2417 ft 172 kts 147°
2026-05-05 22:21 54.47345 -6.21471 2435 ft 162 kts 120°
2026-05-05 22:21 54.46897 -6.19738 2454 ft 158 kts 96°
2026-05-05 22:21 54.46908 -6.17857 2468 ft 155 kts 73°
2026-05-05 22:22 54.47356 -6.16184 2548 ft 156 kts 53°
2026-05-05 22:22 54.48147 -6.14951 2493 ft 155 kts 31°
2026-05-05 22:22 54.49165 -6.14348 2474 ft 156 kts
2026-05-05 22:22 54.50250 -6.14395 2470 ft 157 kts 353°
2026-05-05 22:23 54.51290 -6.14782 2439 ft 146 kts 347°
2026-05-05 22:23 54.52242 -6.15254 2439 ft 142 kts 346°
2026-05-05 22:23 54.53182 -6.15766 2443 ft 141 kts 345°
2026-05-05 22:23 54.54121 -6.16294 2300 ft 141 kts 345°
2026-05-05 22:24 54.55054 -6.16820 2108 ft 141 kts 344°
2026-05-05 22:24 54.55978 -6.17342 1919 ft 140 kts 344°
2026-05-05 22:24 54.56902 -6.17863 1736 ft 140 kts 343°
2026-05-05 22:24 54.57827 -6.18384 1544 ft 140 kts 345°
2026-05-05 22:25 54.58746 -6.18900 1364 ft 139 kts 345°
2026-05-05 22:25 54.59662 -6.19420 1189 ft 139 kts 341°
2026-05-05 22:25 54.60585 -6.19942 990 ft 138 kts 342°
2026-05-05 22:25 54.61491 -6.20448 809 ft 138 kts 343°
2026-05-05 22:26 54.62400 -6.20950 647 ft 138 kts 342°
2026-05-05 22:26 54.63318 -6.21460 456 ft 137 kts 340°
2026-05-05 22:26 54.64217 -6.21970 304 ft 136 kts 342°
2026-05-05 22:26 54.65078 -6.22455 237 ft 110 kts 341°
2026-05-05 22:27 54.65503 -6.22702 214 ft 32 kts 342°
2026-05-05 22:27 54.65649 -6.22782 210 ft 16 kts 344°
2026-05-05 22:27 54.65730 -6.22723 209 ft 12 kts 72°
2026-05-05 22:27 54.65744 -6.22588 212 ft 10 kts 81°
2026-05-05 22:28 54.65755 -6.22465 214 ft 9 kts 81°
2026-05-05 22:28 54.65765 -6.22357 216 ft 8 kts 82°
2026-05-05 22:28 54.65773 -6.22268 219 ft 5 kts 81°
2026-05-05 22:28 54.65777 -6.22218 221 ft 2 kts 81°
2026-05-05 22:29 54.65778 -6.22204 221 ft 0 kts 81°
2026-05-05 22:29 54.65781 -6.22175 223 ft 4 kts 78°
2026-05-05 22:29 54.65792 -6.22110 224 ft 7 kts 73°
2026-05-05 22:29 54.65814 -6.22010 225 ft 10 kts 66°
2026-05-05 22:30 54.65844 -6.21903 229 ft 9 kts 64°
2026-05-05 22:30 54.65870 -6.21813 232 ft 7 kts 64°
2026-05-05 22:30 54.65891 -6.21736 235 ft 6 kts 65°
2026-05-05 22:30 54.65904 -6.21687 237 ft 2 kts 66°
2026-05-05 22:31 54.65908 -6.21672 238 ft 0 kts 65°
2026-05-05 22:31 54.65918 -6.21636 240 ft 6 kts 65°
2026-05-05 22:31 54.65945 -6.21535 242 ft 11 kts 65°
2026-05-05 22:31 54.65981 -6.21401 246 ft 11 kts 65°
2026-05-05 22:32 54.66014 -6.21278 250 ft 11 kts 66°
2026-05-05 22:32 54.66079 -6.21226 249 ft 11 kts 344°
2026-05-05 22:32 54.66114 -6.21254 248 ft 5 kts 311°
2026-05-05 22:32 54.66110 -6.21275 248 ft 1 kts 229°
2026-05-05 22:33 54.66110 -6.21302 247 ft 4 kts 301°
2026-05-05 22:33 54.66114 -6.21328 247 ft 1 kts 264°
2026-05-05 22:33 54.66108 -6.21354 246 ft 0 kts 247°
2026-05-05 22:33 54.66107 -6.21359 246 ft 0 kts 247°